TimeEST,TemperatureF,Dew PointF,Humidity,Sea Level PressureIn,VisibilityMPH,Wind Direction,Wind SpeedMPH,Gust SpeedMPH,PrecipitationIn,Events,Conditions,WindDirDegrees,DateUTC
12:52 AM,10.0,-2.9,56,30.28,10.0,North,5.8,-,N/A,,Clear,350,2013-02-10 05:52:00
1:52 AM,3.9,-2.9,73,30.29,10.0,NE,3.5,-,N/A,,Clear,40,2013-02-10 06:52:00
2:52 AM,3.0,-4.0,73,30.30,10.0,NE,3.5,-,N/A,,Clear,40,2013-02-10 07:52:00
3:52 AM,5.0,-4.0,66,30.31,10.0,ENE,4.6,-,N/A,,Clear,60,2013-02-10 08:52:00
4:52 AM,6.1,-5.1,60,30.34,10.0,Calm,Calm,-,N/A,,Clear,0,2013-02-10 09:52:00
5:52 AM,-0.9,-6.0,79,30.36,10.0,Calm,Calm,-,N/A,,Clear,0,2013-02-10 10:52:00
6:52 AM,-5.1,-9.0,83,30.40,10.0,Calm,Calm,-,N/A,,Clear,0,2013-02-10 11:52:00
7:52 AM,-4.0,-6.0,91,30.44,8.0,Calm,Calm,-,N/A,,Clear,0,2013-02-10 12:52:00
8:52 AM,5.0,-2.0,73,30.45,10.0,Calm,Calm,-,N/A,,Clear,0,2013-02-10 13:52:00
9:52 AM,17.1,-0.9,45,30.45,10.0,Calm,Calm,-,N/A,,Clear,0,2013-02-10 14:52:00
10:52 AM,23.0,-0.9,35,30.45,10.0,NW,9.2,-,N/A,,Clear,320,2013-02-10 15:52:00
11:52 AM,26.1,-2.0,30,30.43,10.0,North,13.8,19.6,N/A,,Clear,350,2013-02-10 16:52:00
12:52 PM,30.0,-0.0,28,30.39,10.0,NW,8.1,-,N/A,,Clear,320,2013-02-10 17:52:00
1:52 PM,32.0,-0.0,26,30.37,10.0,NW,8.1,-,N/A,,Clear,310,2013-02-10 18:52:00
2:52 PM,34.0,-2.0,22,30.37,10.0,Calm,Calm,-,N/A,,Clear,0,2013-02-10 19:52:00
3:52 PM,34.0,-2.0,22,30.37,10.0,Calm,Calm,-,N/A,,Clear,0,2013-02-10 20:52:00
4:52 PM,26.1,7.0,44,30.37,10.0,Calm,Calm,-,N/A,,Clear,0,2013-02-10 21:52:00
5:52 PM,19.0,10.0,68,30.37,10.0,Calm,Calm,-,N/A,,Clear,0,2013-02-10 22:52:00
6:52 PM,19.0,12.0,74,30.39,10.0,Calm,Calm,-,N/A,,Clear,0,2013-02-10 23:52:00
7:52 PM,14.0,10.9,88,30.39,10.0,Calm,Calm,-,N/A,,Clear,0,2013-02-11 00:52:00
8:52 PM,12.9,10.0,88,30.38,10.0,Calm,Calm,-,N/A,,Clear,0,2013-02-11 01:52:00
9:52 PM,7.0,5.0,92,30.37,10.0,Calm,Calm,-,N/A,,Clear,0,2013-02-11 02:52:00
10:52 PM,7.0,3.9,87,30.36,7.0,Calm,Calm,-,N/A,,Partly Cloudy,0,2013-02-11 03:52:00
11:52 PM,9.0,7.0,92,30.35,10.0,Calm,Calm,-,N/A,,Overcast,0,2013-02-11 04:52:00